Home   Weather   Dalian   Past weeks

Flag for China Past Weather in Dalian, Liaoning, China — Yesterday and Last 2 Weeks

Now
79 °F

Clear.


Feels Like: 81 °F
Forecast: 71 / 78 °F
Wind: 8 mph from South

Location: Dalian Airport

Current Time: Jun 28, 2017 at 10:00:49 am

Latest Report: Jun 28, 2017 at 9:00 am


Visibility: 5 mi

Pressure: 29.83 "Hg

Humidity: 70%

Dew Point: 68 °F

Location of DalianLocation

Past Weather in Dalian — Graph

°F

Dalian Temperature Yesterday

Maximum temperature yesterday: 82 °F (at 2:00 pm)
Minimum temperature yesterday: 68 °F (at 3:30 am)
Average temperature yesterday: 75 °F

High & Low Weather Summary for the Past Weeks

 TemperatureHumidityPressure
High95 °F (Jun 18, 1:00 pm)100% (Jun 16, 11:30 pm)29.98 "Hg (Jun 16, 11:30 pm)
Low63 °F (Jun 16, 11:00 pm)19% (Jun 14, 4:30 pm)29.56 "Hg (Jun 20, 7:30 am)
Average75 °F66%29.72 "Hg
* Reported Jun 13 8:00 am — Jun 28 8:30 am, Dalian. Weather by CustomWeather, © 2017

Note: Actual official high and low records may vary slightly from our data, if they occured in-between our weather recording intervals... More about our weather records

Advertising

Dalian Weather History for the Previous 24 Hours

Scroll right to see more
 ConditionsComfort  
Time TempWeatherWind HumidityBarometerVisibility
8:30 am
Wed, Jun 28
77 °FClear.10 mph74%29.83 "Hg5 mi
8:00 am75 °FFog.8 mph78%29.83 "Hg3 mi
7:30 am75 °FFog.8 mph83%29.83 "Hg3 mi
7:00 am75 °FFog.8 mph83%29.83 "Hg3 mi
6:30 am73 °FFog.8 mph89%29.83 "Hg3 mi
6:00 am73 °FFog.8 mph83%29.83 "Hg3 mi
5:30 am72 °FFog.3 mph88%29.83 "Hg3 mi
5:00 am72 °FFog.3 mph88%29.80 "Hg3 mi
4:30 am72 °FFog.6 mph88%29.80 "Hg3 mi
4:00 am72 °FFog.1 mph88%29.80 "Hg3 mi
3:30 am72 °FFog.6 mph88%29.80 "Hg3 mi
3:00 am72 °FFog.6 mph88%29.77 "Hg3 mi
2:30 am72 °FFog.6 mph88%29.80 "Hg3 mi
2:00 am72 °FFog.6 mph88%29.80 "Hg3 mi
1:30 am72 °FPassing clouds.6 mph94%29.77 "Hg4 mi
1:00 am73 °FPassing clouds.6 mph89%29.80 "Hg4 mi
12:30 am73 °FPassing clouds.8 mph89%29.80 "HgN/A
12:00 am73 °FPassing clouds.8 mph89%29.80 "HgN/A
11:30 pm
Tue, Jun 27
73 °FPassing clouds.6 mph89%29.80 "HgN/A
11:00 pm73 °FPassing clouds.6 mph83%29.80 "HgN/A
10:30 pm73 °FPassing clouds.6 mph89%29.80 "HgN/A
10:00 pm73 °FPassing clouds.8 mph89%29.80 "HgN/A
9:30 pm73 °FPassing clouds.8 mph89%29.80 "HgN/A
9:00 pm73 °FPassing clouds.6 mph89%29.80 "HgN/A
8:30 pm73 °FClear.13 mph83%29.80 "Hg10 mi
8:00 pm75 °FClear.8 mph78%29.77 "Hg10 mi
7:30 pm75 °FPassing clouds.8 mph74%29.77 "HgN/A
7:00 pm77 °FPassing clouds.6 mph61%29.77 "HgN/A
6:30 pm77 °FPassing clouds.6 mph65%29.77 "HgN/A
6:00 pm79 °FPassing clouds.8 mph58%29.77 "HgN/A
5:30 pm79 °FPassing clouds.8 mph58%29.77 "HgN/A
5:00 pm79 °FPassing clouds.8 mph58%29.77 "HgN/A
4:30 pm81 °FPassing clouds.8 mph54%29.77 "HgN/A
4:00 pm81 °FPassing clouds.8 mph54%29.77 "HgN/A
3:30 pm81 °FSunny.8 mph54%29.77 "Hg10 mi
3:00 pm81 °FScattered clouds.10 mph54%29.77 "HgN/A
2:30 pm82 °FScattered clouds.8 mph55%29.77 "HgN/A
2:00 pm82 °FScattered clouds.8 mph55%29.77 "HgN/A
1:30 pm81 °FScattered clouds.10 mph58%29.77 "HgN/A
1:00 pm81 °FScattered clouds.8 mph62%29.77 "HgN/A
12:30 pm81 °FScattered clouds.8 mph62%29.80 "HgN/A
12:00 pm81 °FScattered clouds.10 mph58%29.80 "HgN/A
11:30 am81 °FScattered clouds.8 mph62%29.80 "HgN/A
11:00 am81 °FScattered clouds.8 mph58%29.80 "HgN/A
10:30 am79 °FScattered clouds.8 mph65%29.80 "HgN/A
10:00 am81 °FScattered clouds.10 mph66%29.80 "HgN/A
Weather by CustomWeather, © 2017

See weather overviewHow to use our weather pages